[[{"header":{"parameterUnit":"m.s-1","parameterCategory":1,"la1":30.2991,"la2":30.254,"lo1":-89.0895,"lo2":-89.0444,"dy":0.0017,"dx":0.0017,"nx":28,"ny":28,"refTime":"2024-08-01T09:00:00:Z","depth":0,"parameterNumber":2,"parameterNumberName":"U-component_of_WINDS"},"data":[0,0,0,0,0,0,0,0,0,0,0,0,0,0,0,0,0,0,0,0,0,0,0,0,0,0,0,0,0,0,0,0,0,0,0,0,0,0,0,0,0,0,0,0,0,0,0,0,0,0,0,0,0,0,0,0,0,0,2.7227,2.7228,0,2.7285,2.7285,2.7286,2.7248,2.7246,2.7244,2.7243,2.7301,2.7304,2.7307,0,0,0,0,0,0,0,0,0,0,0,0,0,2.7083,2.7086,2.7227,2.7228,2.7229,2.7284,2.7285,2.7286,2.7248,2.7246,2.7244,2.7242,2.73,2.7303,2.7307,0,0,0,0,0,0,0,0,0,0,0,0,0,2.7144,2.7087,2.7227,2.7217,2.7216,2.7284,2.7285,2.7286,2.7249,2.7246,2.7243,2.7241,2.7299,2.7303,2.7308,2.7389,0,0,2.7322,2.7324,0,0,0,0,0,0,0,0,2.714,2.7149,2.7218,2.7218,2.7217,2.7256,2.7256,2.7321,2.7249,2.7236,2.7243,2.724,2.7288,2.7294,2.731,2.7392,2.7395,2.7323,2.7326,2.7328,2.7329,0,0,0,0,0,0,0,2.7136,2.7146,2.725,2.7219,2.7218,2.7208,2.7214,2.7268,2.7276,2.7237,2.7235,2.7242,2.7288,2.7306,2.7311,2.7395,2.7323,2.7327,2.733,2.7332,2.7543,2.7546,0,0,0,0,0,0,2.7133,2.7143,2.7248,2.7252,2.7172,2.7213,2.7219,2.7246,2.7275,2.7277,2.7244,2.724,2.7299,2.7306,2.7313,2.7407,2.7328,2.7332,2.7335,2.7541,2.7544,2.7547,0,0,0,0,0,0,2.713,2.7143,2.7246,2.7197,2.7209,2.7218,2.7249,2.7249,2.7267,2.7281,2.7282,2.7261,2.7297,2.7306,2.737,2.7409,2.7334,2.7339,2.7537,2.7542,2.7546,2.7599,0,0,0,0,0,0,2.7126,2.7142,2.7174,2.7198,2.7212,2.7303,2.7252,2.7252,2.7275,2.727,2.7297,2.7299,2.7296,2.7363,2.7375,2.7414,2.7342,2.7534,2.7539,2.7544,2.7594,2.7604,2.7614,0,0,0,0,0,2.7121,2.7187,2.7176,2.7188,2.7252,2.7305,2.7313,2.7308,2.7279,2.731,2.7318,2.7298,2.7403,2.737,2.7383,2.7424,2.7531,2.7538,2.7544,2.7589,2.7602,2.7613,0,0,0,0,0,0,2.7168,2.719,2.7178,2.7253,2.7278,2.7298,2.7338,2.7323,2.7356,2.735,2.7342,2.7348,2.7414,2.7426,2.7388,2.7503,2.7462,2.7472,2.7493,2.7505,2.7515,2.751,2.7346,0,0,0,0,0,2.7187,2.7229,2.7246,2.7311,2.7324,2.7329,2.7352,2.7346,2.7371,2.7381,2.7394,2.7418,2.7456,2.7482,2.7518,2.7596,2.7599,2.763,2.764,2.7649,2.7656,2.7694,2.7708,2.7568,2.7568,2.7567,0,0,2.7227,2.7244,2.7271,2.7321,2.7339,2.7381,2.7338,2.7385,2.7416,2.7388,2.7448,2.7458,2.7485,2.7555,2.7586,2.7567,2.7695,2.7656,2.7663,2.7666,2.7702,2.7715,2.7727,2.7572,2.7571,2.757,0,0,2.7321,2.7339,2.7394,2.7413,2.744,2.7443,2.7456,2.7479,2.7484,2.7545,2.7523,2.756,2.7627,2.7645,2.7664,2.7762,2.7744,2.7775,2.7826,2.7864,2.7875,2.7884,2.7917,2.7929,2.7782,2.7782,2.7782,0,2.7367,2.743,2.7424,2.7472,2.7493,2.747,2.7524,2.7542,2.758,2.7595,2.7572,2.7654,2.767,2.7743,2.7766,2.7783,2.7796,2.7771,2.7874,2.7883,2.7892,2.7923,2.7935,2.7786,2.7785,2.7785,2.7785,0,2.7483,2.7528,2.7568,2.7605,2.7631,2.7682,2.7683,2.771,2.7701,2.7706,2.7766,2.7785,2.7823,2.784,2.7833,2.7911,2.7897,2.7875,2.7833,2.7909,2.7937,2.7949,2.779,2.7789,2.7788,2.7787,0,0,2.7608,2.7639,2.7654,2.7669,2.7697,2.773,2.7779,2.7816,2.7838,2.7865,2.7904,2.7961,2.7939,2.796,2.7954,2.7988,2.8061,2.7961,2.7961,2.7976,2.8145,2.816,2.8173,2.805,2.8052,2.8054,2.8141,0,2.7701,2.7786,2.7781,2.7861,2.79,2.7878,2.792,2.7941,2.7946,2.7979,2.7985,2.8024,2.7994,2.8006,2.8038,2.8045,2.8094,2.8039,2.8084,2.8086,2.8076,2.8189,2.8206,2.8287,2.8153,2.8155,2.8156,0,2.782,2.785,2.7933,2.7953,2.7969,2.8007,2.8039,2.8072,2.8095,2.8096,2.8118,2.8107,2.8155,2.8114,2.8178,2.8141,2.8159,2.8165,2.8168,2.817,2.8124,2.8191,2.8314,2.8325,2.8174,2.8173,2.8172,0,2.7899,2.796,2.8017,2.8031,2.8056,2.8083,2.8094,2.8114,2.8136,2.8164,2.8177,2.8211,2.8229,2.8255,2.8252,2.8223,2.8316,2.8276,2.8317,2.8317,2.8336,2.8334,2.846,2.8352,2.8352,2.8352,2.8352,0,2.8001,2.8053,2.8052,2.8087,2.8143,2.8136,2.8192,2.82,2.8218,2.8253,2.8236,2.8269,2.8265,2.8298,2.8296,2.8348,2.8357,2.8358,2.8356,2.8358,2.8357,2.8368,2.8361,2.8355,2.8354,2.8354,2.8353,0,2.8098,2.81,2.816,2.8178,2.8184,2.8224,2.8239,2.8271,2.8275,2.8319,2.8329,2.8334,2.8372,2.8372,2.8415,2.8414,2.8477,2.847,2.8469,2.8466,2.8506,2.8501,2.8641,2.8658,2.8542,2.8543,2.8544,0,2.8162,2.82,2.8222,2.8244,2.8257,2.8294,2.8315,2.831,2.8333,2.836,2.8389,2.8425,2.8453,2.8513,2.8521,2.8553,2.8545,2.8592,2.855,2.8549,2.8542,2.8539,2.8541,2.8599,2.8601,2.8602,2.8603,0,2.8274,2.8273,2.8304,2.8336,2.8362,2.8387,2.841,2.8429,2.8426,2.8453,2.849,2.8512,2.8556,2.859,2.8621,2.8632,2.8616,2.8616,2.8627,2.8627,2.8624,2.8623,2.8488,2.8612,2.8611,2.8611,2.861,2.861,2.8354,2.8386,2.8406,2.8441,2.8458,2.8479,2.8509,2.8516,2.8547,2.8582,2.8577,2.8619,2.8638,2.8678,2.8691,2.8723,2.8706,2.8722,2.8726,2.8729,2.8732,2.8621,2.8729,2.8728,2.8728,2.8728,2.8728,0,2.8463,2.8474,2.8507,2.8538,2.8566,2.8549,2.8573,2.8597,2.8633,2.8653,2.8681,2.8723,2.8756,2.8766,2.8797,2.882,2.8814,2.8829,2.8825,2.8828,2.8747,2.8733,2.8833,2.8833,2.8833,2.8833,2.8833,2.8833,2.8522,2.8574,2.8575,2.8635,2.8646,2.8686,2.87,2.8719,2.8734,2.8782,2.8809,2.8816,2.883,2.8863,2.8892,2.8894,2.8905,2.8922,2.8921,2.8844,2.8834,2.8824,2.881,2.8925,2.8926,2.8999,2.9,2.9]},{"header":{"parameterUnit":"m.s-1","parameterCategory":1,"la1":30.2991,"la2":30.254,"lo1":-89.0895,"lo2":-89.0444,"dy":0.0017,"dx":0.0017,"nx":28,"ny":28,"refTime":"2024-08-01T09:00:00:Z","depth":0,"parameterNumber":3,"parameterNumberName":"V-component_of_WINDS"},"data":[0,0,0,0,0,0,0,0,0,0,0,0,0,0,0,0,0,0,0,0,0,0,0,0,0,0,0,0,0,0,0,0,0,0,0,0,0,0,0,0,0,0,0,0,0,0,0,0,0,0,0,0,0,0,0,0,0,0,4.276,4.276,0,4.2784,4.2785,4.2785,4.272,4.2718,4.2716,4.2714,4.2736,4.2739,4.2741,0,0,0,0,0,0,0,0,0,0,0,0,0,4.2653,4.2656,4.276,4.276,4.2761,4.2784,4.2785,4.2785,4.272,4.2718,4.2715,4.2713,4.2736,4.2739,4.2742,0,0,0,0,0,0,0,0,0,0,0,0,0,4.2691,4.2657,4.276,4.2731,4.2729,4.2784,4.2785,4.2785,4.2721,4.2718,4.2715,4.2712,4.2735,4.2738,4.2742,4.2826,0,0,4.2753,4.2755,0,0,0,0,0,0,0,0,4.2689,4.2695,4.2735,4.2733,4.2731,4.2746,4.2755,4.2799,4.2721,4.2724,4.2714,4.271,4.2742,4.2745,4.2756,4.2827,4.2828,4.2754,4.2756,4.2758,4.2759,0,0,0,0,0,0,0,4.2686,4.2694,4.2769,4.2736,4.2733,4.2716,4.2718,4.2763,4.2749,4.2723,4.2719,4.2722,4.274,4.2753,4.2756,4.2828,4.2754,4.2757,4.2759,4.2761,4.2966,4.297,0,0,0,0,0,0,4.2688,4.2692,4.2769,4.277,4.2702,4.272,4.2722,4.2744,4.2749,4.2747,4.2725,4.2719,4.2748,4.2752,4.2757,4.2853,4.2758,4.2761,4.2763,4.2963,4.2967,4.2971,0,0,0,0,0,0,4.2686,4.2695,4.2768,4.273,4.2738,4.2725,4.275,4.2746,4.2759,4.275,4.2747,4.2741,4.2745,4.2751,4.2809,4.2853,4.2763,4.2766,4.2959,4.2964,4.2969,4.3048,0,0,0,0,0,0,4.2683,4.2695,4.2728,4.2731,4.274,4.2821,4.2753,4.2749,4.2765,4.2758,4.2764,4.2762,4.2744,4.2803,4.2812,4.2857,4.2769,4.2955,4.2962,4.2967,4.3042,4.3055,4.3067,0,0,0,0,0,4.268,4.2749,4.273,4.2739,4.2781,4.2823,4.2828,4.2807,4.2769,4.2801,4.2796,4.2762,4.2847,4.281,4.2819,4.2865,4.2952,4.296,4.2967,4.3036,4.3053,4.3067,0,0,0,0,0,0,4.2751,4.2749,4.2728,4.2801,4.2813,4.2812,4.2852,4.2825,4.2848,4.284,4.2811,4.2813,4.2875,4.2876,4.2835,4.2946,4.2893,4.2903,4.2943,4.2958,4.2971,4.2968,4.2772,0,0,0,0,0,4.2776,4.2811,4.2807,4.2872,4.2879,4.2865,4.2883,4.2865,4.2876,4.288,4.2879,4.289,4.2919,4.2939,4.2966,4.3042,4.3041,4.3078,4.3091,4.3101,4.3109,4.3148,4.3163,4.2994,4.2994,4.2994,0,0,4.2826,4.2829,4.2854,4.2887,4.2894,4.293,4.287,4.2911,4.2937,4.2886,4.294,4.294,4.295,4.3017,4.3046,4.3019,4.3156,4.311,4.3119,4.3121,4.3157,4.3173,4.3187,4.2999,4.2998,4.2998,0,0,4.2936,4.2944,4.2997,4.3005,4.3017,4.3007,4.302,4.3023,4.3021,4.3075,4.3037,4.3067,4.3118,4.3127,4.3138,4.325,4.3219,4.326,4.3325,4.3363,4.3376,4.3388,4.3426,4.344,4.3268,4.3268,4.3268,0,4.2997,4.3051,4.3028,4.3071,4.3086,4.3042,4.3095,4.3104,4.3124,4.3134,4.3105,4.3167,4.3171,4.3238,4.3266,4.3277,4.3289,4.3258,4.3376,4.3388,4.3398,4.3434,4.3449,4.3273,4.3272,4.3272,4.3271,0,4.3125,4.3163,4.3204,4.3225,4.3244,4.3292,4.3274,4.3297,4.3277,4.327,4.3324,4.3327,4.3352,4.3367,4.3349,4.3431,4.3414,4.3381,4.3328,4.3419,4.3452,4.3466,4.328,4.3278,4.3276,4.3275,0,0,4.3281,4.3286,4.3302,4.3309,4.3319,4.3347,4.3393,4.3418,4.3437,4.3452,4.3488,4.3532,4.3501,4.3513,4.3495,4.3528,4.3614,4.349,4.349,4.3512,4.3703,4.3727,4.3744,4.3594,4.3597,4.3599,4.3702,0,4.3388,4.3466,4.3445,4.3523,4.3556,4.3515,4.3554,4.3563,4.3557,4.3584,4.3577,4.3608,4.3566,4.3572,4.3604,4.3597,4.3652,4.359,4.3626,4.3628,4.3623,4.3761,4.3787,4.3884,4.3715,4.3717,4.3719,0,4.3523,4.3543,4.3624,4.3626,4.3639,4.3675,4.3695,4.3722,4.3731,4.3724,4.3738,4.3713,4.3756,4.3703,4.3761,4.3719,4.3733,4.3732,4.3735,4.3736,4.3678,4.3764,4.3914,4.3928,4.3739,4.3738,4.3736,0,4.3626,4.3673,4.3727,4.3735,4.374,4.3765,4.3768,4.3774,4.379,4.3808,4.3818,4.3841,4.3853,4.387,4.3851,4.3815,4.3911,4.3858,4.3905,4.3906,4.3926,4.3925,4.4079,4.3938,4.3938,4.3938,4.3938,0,4.3747,4.3797,4.3773,4.3806,4.3861,4.3836,4.3891,4.3889,4.3895,4.3925,4.3891,4.3921,4.3894,4.3921,4.3907,4.3956,4.3962,4.3956,4.3952,4.3959,4.3959,4.3966,4.3958,4.3942,4.3941,4.394,4.394,0,4.387,4.3857,4.3912,4.3911,4.3912,4.3953,4.3951,4.3981,4.3973,4.4012,4.402,4.4006,4.4036,4.4019,4.4049,4.4039,4.4103,4.409,4.41,4.4095,4.4143,4.4139,4.4306,4.4325,4.4174,4.4176,4.4177,0,4.3947,4.3985,4.3988,4.4007,4.4012,4.4042,4.4058,4.4035,4.4053,4.4065,4.4093,4.412,4.414,4.4189,4.4181,4.4204,4.419,4.4247,4.4193,4.4198,4.4188,4.4186,4.4188,4.4257,4.4259,4.4261,4.4262,0,4.4085,4.4076,4.41,4.4123,4.4142,4.4159,4.4172,4.4189,4.4165,4.4187,4.4217,4.4233,4.4263,4.429,4.4309,4.4311,4.4282,4.4279,4.4291,4.4297,4.4301,4.4298,4.4127,4.4275,4.4274,4.4273,4.4272,4.4271,4.4186,4.4217,4.4224,4.4252,4.4259,4.4272,4.4299,4.4294,4.4319,4.4342,4.4327,4.4362,4.4368,4.4391,4.4396,4.4423,4.4399,4.4417,4.4421,4.4426,4.4431,4.4298,4.4426,4.4426,4.4425,4.4425,4.4425,0,4.432,4.4322,4.4348,4.4367,4.4389,4.4361,4.4374,4.4393,4.4425,4.4434,4.4454,4.4487,4.4513,4.4507,4.4529,4.4551,4.4538,4.4558,4.4555,4.4555,4.4452,4.4438,4.4567,4.4567,4.4567,4.4567,4.4567,4.4567,4.4392,4.4442,4.4434,4.4487,4.4488,4.4522,4.4531,4.4543,4.4549,4.4588,4.4609,4.4605,4.4608,4.463,4.4651,4.4649,4.4658,4.4681,4.4674,4.4577,4.4563,4.4549,4.4536,4.4684,4.4684,4.4775,4.4776,4.4777]}]]